| time (UTC) | temp F | wind direction | speed knots | gust knots | rain 1hr in | rain 24hr in | rain mn in | humidity % | barometer mb |
| 20260510094204 | 60 | 22 | 0.0 | 2.6 | 0.00 | 0.00 | 0.00 | 22 | 1019.8 |
| 20260510093205 | 60 | 248 | 0.0 | 3.5 | 0.00 | 0.00 | 0.00 | 19 | 1019.8 |
| 20260510092205 | 60 | 292 | 0.9 | 2.6 | 0.00 | 0.00 | 0.00 | 19 | 1019.7 |
| 20260510091205 | 61 | 270 | 0.0 | 2.6 | 0.00 | 0.00 | 0.00 | 17 | 1019.7 |
| 20260510090206 | 61 | 292 | 0.0 | 5.2 | 0.00 | 0.00 | 0.00 | 19 | 1019.7 |
| 20260510085205 | 61 | 292 | 3.5 | 4.3 | 0.00 | 0.00 | 0.00 | 16 | 1019.7 |
| 20260510082204 | 61 | 292 | 0.0 | 0.0 | 0.00 | 0.00 | 0.00 | 16 | 1019.7 |
| 20260510081205 | 61 | 292 | 0.0 | 0.0 | 0.00 | 0.00 | 0.00 | 16 | 1019.7 |
| 20260510080205 | 61 | 292 | 0.0 | 1.7 | 0.00 | 0.00 | 0.00 | 16 | 1019.7 |
| 20260510075206 | 61 | 248 | 0.0 | 5.2 | 0.00 | 0.00 | 0.00 | 17 | 1019.7 |
| 20260510074205 | 61 | 248 | 0.0 | 5.2 | 0.00 | 0.00 | 0.00 | 17 | 1019.7 |
| 20260510073205 | 61 | 248 | 3.5 | 5.2 | 0.00 | 0.00 | 0.00 | 17 | 1019.7 |
| 20260510072205 | 60 | 248 | 1.7 | 5.2 | 0.00 | 0.00 | 0.00 | 17 | 1019.7 |
| 20260510063206 | 62 | 225 | 0.0 | 0.0 | 0.00 | 0.00 | 0.00 | 14 | 1017.6 |
| 20260510062205 | 62 | 225 | 0.0 | 0.0 | 0.00 | 0.00 | 0.00 | 14 | 1017.5 |
| 20260510055205 | 64 | 248 | 0.0 | 3.5 | 0.00 | 0.00 | 0.00 | 13 | 1017.4 |
| 20260510054205 | 64 | 248 | 3.5 | 2.6 | 0.00 | 0.00 | 0.00 | 13 | 1016.3 |
| 20260510053206 | 64 | 292 | 0.0 | 2.6 | 0.00 | 0.00 | 0.00 | 13 | 1015.2 |
| 20260510052204 | 65 | 338 | 2.6 | 7.8 | 0.00 | 0.00 | 0.00 | 13 | 1015.2 |
| 20260510051205 | 65 | 135 | 5.2 | 12.2 | 0.00 | 0.00 | 0.00 | 13 | 1015.1 |
| 20260510050205 | 66 | 68 | 4.3 | 12.2 | 0.00 | 0.00 | 0.00 | 13 | 1015.1 |
| 20260510045205 | 66 | 135 | 8.7 | 15.6 | 0.00 | 0.00 | 0.00 | 12 | 1015.1 |
| 20260510044205 | 67 | 158 | 10.4 | 7.0 | 0.00 | 0.00 | 0.00 | 12 | 1014.0 |
| 20260510043205 | 67 | 135 | 7.0 | 0.0 | 0.00 | 0.00 | 0.00 | 12 | 1012.9 |
| 20260510040205 | 67 | 202 | 13.9 | 26.9 | 0.00 | 0.00 | 0.00 | 12 | 1013.9 |
| 20260510035205 | 67 | 202 | 13.9 | 26.9 | 0.00 | 0.00 | 0.00 | 12 | 1013.9 |
| 20260510033205 | 66 | 0.0 | 0.0 | 0.00 | 0.00 | 0.00 | 12 | 1017.2 | |
| 20260510032205 | 67 | 0.0 | 0.0 | 0.00 | 0.00 | 0.00 | 12 | 1017.1 | |
| 20260510031205 | 67 | 0.0 | 0.0 | 0.00 | 0.00 | 0.00 | 12 | 1017.1 | |
| 20260510025207 | 68 | 112 | 5.2 | 5.2 | 0.00 | 0.00 | 0.00 | 12 | 1019.1 |
| 20260510024205 | 69 | 112 | 4.3 | 10.4 | 0.00 | 0.00 | 0.00 | 12 | 1019.0 |
| 20260510023205 | 72 | 22 | 6.1 | 15.6 | 0.00 | 0.00 | 0.00 | 11 | 1016.7 |
| 20260510022205 | 75 | 338 | 7.8 | 15.6 | 0.00 | 0.00 | 0.00 | 10 | 1016.4 |
| 20260510021205 | 76 | 45 | 5.2 | 5.2 | 0.00 | 0.00 | 0.00 | 10 | 1014.2 |
| 20260510020205 | 76 | 68 | 1.7 | 9.6 | 0.00 | 0.00 | 0.00 | 10 | 1013.2 |
| 20260510015205 | 77 | 112 | 4.3 | 9.6 | 0.00 | 0.00 | 0.00 | 10 | 1013.1 |
| 20260510014204 | 77 | 90 | 7.0 | 10.4 | 0.00 | 0.00 | 0.00 | 10 | 1012.1 |
| 20260510013205 | 78 | 112 | 7.8 | 10.4 | 0.00 | 0.00 | 0.00 | 10 | 1012.0 |
| 20260510012205 | 78 | 112 | 7.0 | 9.6 | 0.00 | 0.00 | 0.00 | 10 | 1012.0 |
| 20260510011205 | 79 | 112 | 6.1 | 9.6 | 0.00 | 0.00 | 0.00 | 10 | 1011.9 |
| 20260510005205 | 81 | 68 | 4.3 | 9.6 | 0.00 | 0.00 | 0.00 | 9 | 1010.7 |
| 20260510004205 | 82 | 68 | 4.3 | 9.6 | 0.00 | 0.00 | 0.00 | 9 | 1010.7 |
| 20260510002205 | 85 | 112 | 4.3 | 13.0 | 0.00 | 0.00 | 0.00 | 8 | 1010.4 |
| 20260510001205 | 87 | 112 | 6.1 | 11.3 | 0.00 | 0.00 | 0.00 | 11 | 1010.2 |
| 20260510000206 | 90 | 90 | 6.1 | 12.2 | 0.00 | 0.00 | 0.00 | 10 | 1011.1 |
| 20260509235205 | 91 | 158 | 8.7 | 12.2 | 0.00 | 0.00 | 0.00 | 10 | 1011.0 |
| 20260509234205 | 92 | 158 | 9.6 | 12.2 | 0.00 | 0.00 | 0.00 | 9 | 1010.9 |
| 20260509233205 | 92 | 158 | 7.0 | 11.3 | 0.00 | 0.00 | 0.00 | 9 | 1010.9 |
| 20260509232205 | 93 | 112 | 9.6 | 11.3 | 0.00 | 0.00 | 0.00 | 9 | 1010.8 |
| 20260509230205 | 93 | 158 | 4.3 | 11.3 | 0.00 | 0.00 | 0.00 | 9 | 1010.8 |
| 20260509225205 | 93 | 112 | 7.0 | 11.3 | 0.00 | 0.00 | 0.00 | 9 | 1010.8 |
| 20260509224205 | 92 | 158 | 3.5 | 11.3 | 0.00 | 0.00 | 0.00 | 9 | 1010.9 |
| 20260509223205 | 92 | 158 | 3.5 | 10.4 | 0.00 | 0.00 | 0.00 | 9 | 1010.9 |
| 20260509222205 | 92 | 135 | 3.5 | 9.6 | 0.00 | 0.00 | 0.00 | 9 | 1010.9 |
| 20260509221205 | 92 | 135 | 5.2 | 9.6 | 0.00 | 0.00 | 0.00 | 9 | 1009.8 |
| 20260509220206 | 92 | 135 | 0.9 | 9.6 | 0.00 | 0.00 | 0.00 | 9 | 1011.9 |
| 20260509215205 | 92 | 158 | 0.0 | 9.6 | 0.00 | 0.00 | 0.00 | 9 | 1011.9 |
| 20260509214205 | 92 | 158 | 7.0 | 10.4 | 0.00 | 0.00 | 0.00 | 9 | 1010.9 |
| 20260509213205 | 92 | 202 | 3.5 | 11.3 | 0.00 | 0.00 | 0.00 | 9 | 1010.9 |
| 20260509212204 | 92 | 112 | 7.0 | 11.3 | 0.00 | 0.00 | 0.00 | 9 | 1010.9 |
| 20260509211205 | 92 | 135 | 6.1 | 11.3 | 0.00 | 0.00 | 0.00 | 9 | 1010.9 |
| 20260509205206 | 91 | 158 | 1.7 | 10.4 | 0.00 | 0.00 | 0.00 | 9 | 1010.9 |
| 20260509204205 | 91 | 158 | 0.0 | 10.4 | 0.00 | 0.00 | 0.00 | 10 | 1012.0 |
| 20260509203205 | 91 | 158 | 0.0 | 8.7 | 0.00 | 0.00 | 0.00 | 10 | 1012.0 |
| 20260509201205 | 91 | 135 | 0.0 | 7.8 | 0.00 | 0.00 | 0.00 | 10 | 1012.0 |
| 20260509195205 | 91 | 202 | 3.5 | 7.8 | 0.00 | 0.00 | 0.00 | 10 | 1012.0 |
| 20260509194205 | 91 | 158 | 0.9 | 9.6 | 0.00 | 0.00 | 0.00 | 10 | 1012.0 |
| 20260509193205 | 91 | 158 | 5.2 | 7.8 | 0.00 | 0.00 | 0.00 | 10 | 1012.0 |
| 20260509192205 | 90 | 158 | 3.5 | 7.8 | 0.00 | 0.00 | 0.00 | 10 | 1012.1 |
| 20260509191205 | 91 | 112 | 3.5 | 7.0 | 0.00 | 0.00 | 0.00 | 10 | 1013.1 |
| 20260509185205 | 92 | 158 | 0.0 | 9.6 | 0.00 | 0.00 | 0.00 | 9 | 1013.0 |
| 20260509183205 | 93 | 180 | 2.6 | 7.8 | 0.00 | 0.00 | 0.00 | 9 | 1012.9 |
| 20260509182204 | 93 | 158 | 5.2 | 7.0 | 0.00 | 0.00 | 0.00 | 9 | 1012.9 |
| 20260509175206 | 90 | 158 | 0.0 | 8.7 | 0.00 | 0.00 | 0.00 | 10 | 1013.1 |
| 20260509172205 | 90 | 225 | 0.0 | 5.2 | 0.00 | 0.00 | 0.00 | 10 | 1013.1 |
| 20260509165206 | 88 | 112 | 0.0 | 5.2 | 0.00 | 0.00 | 0.00 | 10 | 1014.3 |
| 20260509164205 | 88 | 135 | 0.0 | 7.0 | 0.00 | 0.00 | 0.00 | 10 | 1014.3 |
| 20260509163205 | 87 | 112 | 0.0 | 7.0 | 0.00 | 0.00 | 0.00 | 11 | 1014.4 |
| 20260509162205 | 87 | 158 | 0.0 | 2.6 | 0.00 | 0.00 | 0.00 | 8 | 1014.4 |
| 20260509161205 | 84 | 135 | 0.0 | 2.6 | 0.00 | 0.00 | 0.00 | 8 | 1014.6 |
| 20260509155205 | 82 | 338 | 0.0 | 0.0 | 0.00 | 0.00 | 0.00 | 9 | 1013.8 |
| 20260509154204 | 81 | 292 | 0.0 | 0.0 | 0.00 | 0.00 | 0.00 | 9 | 1014.9 |
| 20260509153205 | 79 | 292 | 0.0 | 0.0 | 0.00 | 0.00 | 0.00 | 10 | 1015.0 |
| 20260509152205 | 78 | 292 | 0.0 | 0.0 | 0.00 | 0.00 | 0.00 | 10 | 1015.1 |
| 20260509151206 | 78 | 292 | 0.0 | 1.7 | 0.00 | 0.00 | 0.00 | 10 | 1016.2 |
| 20260509150205 | 78 | 292 | 0.0 | 3.5 | 0.00 | 0.00 | 0.00 | 10 | 1016.2 |
| 20260509145207 | 78 | 292 | 0.0 | 1.7 | 0.00 | 0.00 | 0.00 | 10 | 1016.2 |
| 20260509144206 | 76 | 225 | 0.0 | 3.5 | 0.00 | 0.00 | 0.00 | 10 | 1016.4 |
| 20260509143206 | 74 | 292 | 0.0 | 3.5 | 0.00 | 0.00 | 0.00 | 11 | 1015.4 |
| 20260509141205 | 74 | 248 | 0.9 | 0.9 | 0.00 | 0.00 | 0.00 | 11 | 1015.5 |
| 20260509140205 | 73 | 225 | 0.0 | 0.0 | 0.00 | 0.00 | 0.00 | 11 | 1015.5 |
| 20260509135205 | 73 | 248 | 0.0 | 0.9 | 0.00 | 0.00 | 0.00 | 11 | 1015.5 |
| 20260509133205 | 71 | 292 | 0.0 | 0.0 | 0.00 | 0.00 | 0.00 | 12 | 1015.7 |
| 20260509131205 | 67 | 292 | 0.0 | 3.5 | 0.00 | 0.00 | 0.00 | 12 | 1016.0 |
| 20260509130205 | 66 | 292 | 0.0 | 3.5 | 0.00 | 0.00 | 0.00 | 13 | 1016.1 |
| 20260509125206 | 64 | 270 | 0.0 | 3.5 | 0.00 | 0.00 | 0.00 | 13 | 1016.3 |
| 20260509124205 | 63 | 292 | 0.0 | 3.5 | 0.00 | 0.00 | 0.00 | 16 | 1016.4 |
| 20260509123205 | 61 | 292 | 0.0 | 1.7 | 0.00 | 0.00 | 0.00 | 25 | 1015.5 |
| 20260509122205 | 57 | 292 | 0.0 | 1.7 | 0.00 | 0.00 | 0.00 | 26 | 1015.9 |
| 20260509121205 | 55 | 292 | 0.0 | 0.0 | 0.00 | 0.00 | 0.00 | 26 | 1016.1 |
| 20260509115205 | 54 | 248 | 0.0 | 0.0 | 0.00 | 0.00 | 0.00 | 26 | 1015.1 |
| 20260509114205 | 54 | 248 | 0.0 | 0.0 | 0.00 | 0.00 | 0.00 | 25 | 1016.1 |
| 20260509113205 | 55 | 248 | 0.0 | 0.0 | 0.00 | 0.00 | 0.00 | 23 | 1015.0 |
| 20260509112205 | 55 | 248 | 0.0 | 0.0 | 0.00 | 0.00 | 0.00 | 23 | 1015.0 |
| 20260509111205 | 55 | 248 | 0.0 | 0.0 | 0.00 | 0.00 | 0.00 | 23 | 1015.0 |
| 20260509105205 | 55 | 202 | 0.0 | 0.0 | 0.00 | 0.00 | 0.00 | 20 | 1016.1 |
| 20260509103205 | 55 | 180 | 0.0 | 0.0 | 0.00 | 0.00 | 0.00 | 18 | 1016.1 |
| 20260509102205 | 55 | 180 | 0.0 | 0.0 | 0.00 | 0.00 | 0.00 | 15 | 1016.1 |
| 20260509101205 | 55 | 0.0 | 0.0 | 0.00 | 0.00 | 0.00 | 15 | 1016.1 | |
| 20260509100205 | 55 | 180 | 0.0 | 0.0 | 0.00 | 0.00 | 0.00 | 15 | 1016.1 |
| 20260509095205 | 55 | 180 | 0.0 | 0.0 | 0.00 | 0.00 | 0.00 | 15 | 1016.0 |